Location: Gellin
(53.4498°N, 14.3207°E)
Time: 21:41:28
(UTC+00:00)

Daily predictions for brighter satellites

Satellite Brightness Start Highest point End
(mag) Time Altitude Azimuth Time Altitude Azimuth Time Altitude Azimuth
Okean O Rocket 3.3 17:11:15 10° SSW 17:15:20 40° W 17:19:27 10° NNW
Cosmos 1980 Rocket 2.5 17:13:03 10° SW 17:18:44 76° NW 17:24:29 10° NNE
Cosmos 1943 Rocket 4.3 17:17:01 10° NNW 17:19:46 13° N 17:22:30 10° NE
SL-08 RB Rocket 4.2 17:16:59 10° SE 17:21:10 38° ENE 17:25:24 10° N
CZ-2D R/B 3.9 17:17:40 10° S 17:21:27 62° W 17:25:15 10° NNW
Cosmos 1689 Rocket 3.2 17:21:18 10° NE 17:23:38 22° E 17:25:58 10° SSE
SJ-11-01 4.3 17:21:07 10° SSE 17:25:46 69° ENE 17:30:29 10° N
ERBS 2.6 17:22:52 10° SW 17:26:05 48° SE 17:29:18 10° ENE
Cosmos 1862 Rocket 3.6 17:22:18 10° N 17:26:48 67° ENE 17:31:16 10° SSE
Cosmos 1867 3.8 17:22:15 10° SW 17:27:43 75° NW 17:33:14 10° NE
Cosmos 1666 Rocket 3.5 17:24:08 10° S 17:28:25 65° E 17:32:43 10° NNE
BREEZE-M DEB (TANK) 4.3 17:26:12 10° S 17:28:27 13° SSE 17:30:05 10° SE
CZ-2C R/B 3.9 17:24:38 10° S 17:30:17 61° W 17:35:43 10° NNW
Aureole 2 Rocket 1.5 17:28:46 10° NNW 17:31:20 63° ENE 17:33:50 10° SE
Cosmos 2242 Rocket 4.2 17:28:06 10° N 17:32:18 36° ENE 17:36:26 10° SE
Cosmos 2322 Rocket 2.6 17:27:37 10° S 17:32:51 42° ESE 17:38:08 10° NE
Nadezhda 3 Rocket 4.0 17:27:32 10° N 17:33:55 69° ENE 17:40:17 10° SSE
Sich 1 3.4 17:31:36 10° SSW 17:35:59 72° WNW 17:40:27 10° N
Resurs 01 Rocket 3.6 17:35:09 10° ENE 17:37:03 13° NE 17:38:58 10° NNE
Cosmos 1461 3.2 17:33:12 10° SSW 17:37:55 72° SE 17:42:39 10° NE
ATLAS 5 CENTAUR R/B 3.1 17:25:13 10° SW 17:38:26 84° NW 17:42:05 10° NE
Meteor 1-25 Rocket 4.2 17:34:16 10° S 17:39:59 72° E 17:45:39 10° NNE
Cosmos 1697 Rocket 4.1 17:34:53 10° WSW 17:40:08 38° NW 17:45:24 10° NNE
COSMOS 2428 4.5 17:42:04 10° ESE 17:42:30 11° ESE 17:42:30 11° ESE
Cosmos 2074 Rocket 4.0 17:37:49 10° S 17:44:06 85° E 17:50:24 10° NNE
Cosmos 2154 Rocket 4.0 17:38:16 10° S 17:44:21 61° E 17:50:27 10° NNE
Abrixas rocket 3.2 17:42:26 10° SW 17:44:28 22° S 17:45:57 14° SE
YAOGAN 1 2.8 17:40:50 10° S 17:45:10 77° WSW 17:49:32 10° NNW
Helios 1A Rocket 2.8 17:41:16 10° SSE 17:45:18 70° ENE 17:49:21 10° NNW
FALCON 9 DEB 2.9 17:42:58 10° W 17:46:10 84° S 17:48:33 16° E
Meteor 1-14 Rocket 4.4 17:42:31 10° SSE 17:47:46 46° E 17:53:02 10° NNE
COSMO-SKYMED 1 3.1 17:43:40 10° N 17:48:00 65° WNW 17:52:17 10° SSW
Cosmos 1610 Rocket 4.5 17:41:57 10° S 17:48:03 64° E 17:54:17 10° NNE
Cosmos 2219 Rocket 3.6 17:47:43 10° SE 17:50:48 15° E 17:53:41 11° ENE
SJ-6B 3.7 17:47:15 10° SE 17:50:51 30° ENE 17:54:25 10° N
GP-B 3.4 17:48:31 10° SSE 17:52:44 44° E 17:56:58 10° N
Cosmos 2263 Rocket 4.3 17:48:51 10° NW 17:53:35 29° WSW 17:58:17 10° SSW
Meteor 1-18 Rocket 4.4 17:48:15 10° NNW 17:54:13 85° WSW 18:00:09 10° S
MetOp-A 4.4 17:49:10 10° SE 17:54:17 48° ENE 17:59:26 10° N
Cosmos 1992 Rocket 4.1 17:51:36 10° S 17:56:41 54° ESE 18:01:48 10° NNE
SL-16 R/B 2.2 17:51:39 10° SSW 17:57:17 74° ESE 18:02:59 10° NE
USA 234 4.2 17:52:33 12° ENE 17:57:23 27° SE 18:02:44 10° S
ARGOS 3.3 17:52:52 10° SSE 17:58:18 82° WSW 18:03:47 10° NNW
Cosmos 1515 4.3 17:54:47 10° NNW 17:58:36 61° W 18:02:21 10° S
FALCON 9 DEB 2.8 17:55:26 10° W 17:58:37 85° S 18:00:32 22° E
Okean 1 3.8 17:54:40 10° NNW 17:58:40 65° W 18:02:40 10° S
SeaSat 1 2.8 17:56:04 10° NE 18:00:45 41° ESE 18:05:23 10° S
SJ 16-02 2.7 17:57:15 10° N 18:00:47 23° NE 18:02:34 18° E
Okean 1-7 3.1 17:57:54 10° N 18:02:14 54° ENE 18:06:29 10° SSE
Cosmos 1633 Rocket 3.4 18:00:05 10° SSW 18:04:30 71° WNW 18:08:58 10° N
OBJECT-B 1.8 18:03:22 22° ESE 18:04:31 28° ENE 18:07:21 10° N
Cosmos 2184 Rocket 4.2 17:58:35 10° SSW 18:04:45 75° WNW 18:11:00 10° N
Cosmos 2369 Rocket 4.3 18:02:02 10° NNW 18:04:47 14° N 18:07:32 10° NE
CZ-2C R/B 2.7 18:00:39 10° NNE 18:06:06 56° E 18:11:23 10° S
SAR-Lupe-4 3.4 18:05:13 10° NNE 18:08:49 74° ESE 18:12:23 10° S
CZ-4 R/B 3.0 18:06:08 10° SSW 18:09:43 37° W 18:13:24 10° NNW
H-2A R/B 3.1 18:04:30 10° S 18:09:48 51° W 18:15:08 10° NNW
USA 305 2.9 18:07:57 10° W 18:12:15 83° N 18:14:50 23° E
DMSP B5D2-2 4.4 18:07:28 10° NNE 18:12:28 43° E 18:17:25 10° S
Gbstr 26 Del rocket 3.3 18:10:31 10° WSW 18:15:00 73° S 18:18:26 23° E
SL-8 Rocket 4.2 18:10:28 10° SSE 18:16:21 46° E 18:22:12 10° NNE
Cosmos 2237 4.2 18:11:00 10° SSW 18:16:37 59° ESE 18:22:16 10° NE
SL-4 R/B 2.0 18:13:35 10° W 18:17:04 53° SSW 18:18:38 27° SE
Cosmos 962 Rocket 4.5 18:12:13 10° S 18:18:21 65° E 18:24:36 10° NNE
Cosmos 1869 Rocket 4.1 18:17:20 10° SSE 18:21:16 34° E 18:25:15 10° NNE
USA 307 2.9 18:19:14 10° W 18:23:33 82° N 18:25:41 29° E
Cosmos 1339 Rocket 4.4 18:18:41 10° N 18:24:53 73° ENE 18:31:09 10° SSE
USA 186 0.8 18:25:07 61° SE 18:25:26 78° ENE 18:27:57 10° N
ERS-2 2.4 18:22:26 10° NNE 18:26:05 69° WNW 18:29:43 10° SSW
ATLAS CENTAUR R/B 1.4 18:22:42 10° SSW 18:26:08 41° SE 18:26:57 35° E
USA 306 2.9 18:22:38 10° W 18:26:56 82° N 18:28:56 31° E
SAR-Lupe-1 4.4 18:24:38 10° N 18:28:14 67° WNW 18:31:48 10° SSW
Cosmos 1378 3.6 18:25:13 10° N 18:28:45 38° ENE 18:29:16 36° E
Cosmos 1844 Rocket 3.2 18:23:31 10° NW 18:29:01 60° WSW 18:34:29 10° SSE
FALCON 9 DEB 2.8 18:25:53 10° W 18:29:03 79° S 18:29:48 49° ESE
Okean-O 4.5 18:25:38 10° SSW 18:29:38 33° W 18:33:41 10° NNW
CSL-04 Rocket 4.3 18:25:24 10° S 18:30:52 58° WSW 18:36:20 10° NNW
FALCON 9 DEB 2.8 18:27:50 10° W 18:31:02 81° S 18:31:45 51° ESE
Cosmos 2366 rocket 4.2 18:25:19 10° SSE 18:31:20 48° E 18:37:25 10° NNE
Cosmos 1777 Rocket 3.9 18:28:38 10° NNW 18:33:56 84° ENE 18:37:59 17° SSE
USA 308 2.9 18:29:50 10° W 18:34:08 82° N 18:35:51 35° E
Cosmos 1666 2.6 18:31:56 10° S 18:35:35 59° E 18:39:17 10° NNE
Cosmos 2341 Rocket 3.9 18:33:26 10° S 18:39:44 80° E 18:46:01 10° NNE
SPOT 3 Rocket 4.0 18:37:59 31° ESE 18:39:51 42° ENE 18:44:45 10° N
Meteor 1-5 Rocket 4.0 18:34:40 10° S 18:40:02 75° E 18:45:36 10° NNE
Cosmos 2333 4.4 18:35:13 10° S 18:40:33 45° ESE 18:45:59 10° NE
Okean 3 3.4 18:36:34 10° N 18:40:49 66° ENE 18:42:57 28° SSE
Cosmos 1844 4.2 18:35:07 10° NW 18:40:49 60° WSW 18:46:26 10° SSE
CZ-4B R/B 4.4 18:39:06 10° NNW 18:41:00 15° WNW 18:42:54 10° W
ARIANE 5 R/B 4.2 18:44:05 20° NE 18:44:05 20° NE 18:46:55 10° N
Cosmos 1470 Rocket 4.5 18:39:26 10° SSW 18:43:47 51° WNW 18:48:09 10° N
Cosmos 2221 Rocket 3.9 18:40:50 10° N 18:45:05 43° ENE 18:45:39 41° E
Ariane Rocket 2.9 18:42:04 16° SSE 18:46:08 79° ENE 18:51:16 10° NNW
Cosmos 2278 Rocket 2.5 18:41:03 10° NNW 18:46:36 50° NE 18:48:36 35° ESE
Cosmos 2360 Rocket 2.1 18:41:01 10° SSW 18:46:40 80° ESE 18:52:22 10° NNE
Cosmos 1727 Rocket 3.9 18:42:44 10° N 18:48:54 62° ENE 18:52:57 22° SSE
SPOT 1/Viking Rocket 4.4 18:49:18 29° ENE 18:49:42 29° ENE 18:54:08 10° N
Meteor 2-20 4.5 18:44:46 10° N 18:50:49 59° ENE 18:54:04 28° SE
Cosmos 1703 Rocket 4.4 18:48:16 10° NNW 18:52:34 51° W 18:56:47 10° S
Cosmos 1500 4.3 18:50:52 10° SSW 18:54:26 44° WNW 18:58:04 10° N
Cosmos 2333 Rocket 2.4 18:51:23 10° S 18:56:49 48° ESE 19:02:18 10° NE
Cosmos 1821 Rocket 4.5 18:57:20 35° E 18:57:33 35° E 19:03:03 10° NNE
Cosmos 2218 Rocket 3.9 18:51:56 10° S 18:58:18 74° E 19:04:42 10° NNE
ERBS 2.7 18:59:00 10° W 19:02:16 53° NNW 19:02:18 53° N
Cosmos 1980 Rocket 4.3 18:59:08 10° W 19:03:42 24° NNW 19:08:18 10° NNE
Cosmos 1943 Rocket 3.6 19:01:13 10° NNW 19:05:44 23° NNE 19:06:52 22° NE
Cosmos 1674 Rocket 4.4 19:04:31 10° N 19:07:36 34° NE 19:07:36 34° NE
MetOp-B 4.3 19:08:50 48° E 19:09:34 51° ENE 19:14:46 10° N
IGS 5A 4.1 19:11:13 42° NE 19:11:13 42° NE 19:14:28 10° N
Resurs 01 Rocket 1.5 19:12:41 67° ENE 19:12:45 67° ENE 19:17:09 10° N
Cosmos 2123 Rocket 4.4 19:09:11 10° N 19:15:06 41° ENE 19:15:27 40° ENE
Cosmos 864 Rocket 4.4 19:08:55 10° S 19:15:06 87° E 19:21:22 10° N
SME Rocket 4.3 19:07:06 10° NNE 19:16:14 85° ESE 19:21:59 10° SSW
Cosmos 2322 Rocket 3.2 19:11:30 10° WSW 19:16:55 46° NW 19:22:21 10° NNE
Lacrosse 4 Rocket 4.0 19:14:21 10° SSW 19:14:29 11° SSW 19:14:29 11° SSW
Cosmos 1959 Rocket 4.4 19:14:25 10° SSW 19:20:32 84° W 19:26:42 10° N
Cosmos 192 4.2 19:19:03 10° SSW 19:23:57 86° ESE 19:28:55 10° NNE
SJ-6B 4.4 19:22:30 15° SSW 19:25:26 35° W 19:29:11 10° NNW
ASTEX 1 3.6 19:20:42 10° N 19:25:35 71° W 19:30:11 11° SSW
Cosmos 1378 Rocket 4.5 19:22:03 10° N 19:25:06 37° NNE 19:25:06 37° NNE
Cosmos 1937 Rocket 4.0 19:21:53 10° NNW 19:26:29 42° NE 19:26:29 42° NE
COSMOS 2428 3.4 19:21:17 10° SSW 19:32:11 11° NE 19:32:26 10° NE
Meteor 1-23 Rocket 4.2 19:22:36 10° NNW 19:28:12 77° W 19:30:27 38° S
USA 245 4.3 19:29:59 58° E 19:30:20 59° ENE 19:36:28 10° N
Cosmos 2219 Rocket 2.0 19:28:14 10° SSW 19:33:48 75° ESE 19:39:26 10° NE
Meteor 1-11 Rocket 3.8 19:28:07 10° SSW 19:33:49 75° WNW 19:39:27 10° N
OBJECT-B 3.0 19:36:26 23° WSW 19:36:47 24° W 19:39:29 10° NW
SeaSat 1 3.5 19:33:37 10° NNE 19:38:20 45° NW 19:43:01 10° WSW
SJ 16-02 1.6 19:35:24 10° NNW 19:39:34 63° W 19:39:34 63° W
Resurs 1-3 4.5 19:38:47 38° SW 19:39:51 46° W 19:44:07 10° NNW
Terra 3.5 19:42:57 22° NNE 19:42:57 22° NNE 19:45:14 10° N
USA 234 3.1 19:39:54 56° E 19:41:12 69° SSE 19:47:43 10° SW
SL-16 R/B 3.9 19:36:56 10° WSW 19:41:57 31° NW 19:47:00 10° NNE
Cosmos 1536 4.1 19:46:16 37° NNW 19:46:16 37° NNW 19:48:57 10° N
CZ-2C R/B 4.5 19:41:20 10° N 19:46:08 31° WNW 19:50:50 10° WSW
Meteor 2-20 Rocket 4.4 19:41:33 10° NNW 19:47:40 80° W 19:49:08 54° S
USA 281 3.9 19:47:39 36° NE 19:48:09 37° NE 19:54:03 10° NNW
Cosmos 2369 Rocket 3.6 19:46:13 10° NNW 19:50:42 26° NNE 19:50:42 26° NNE
USA 305 4.0 19:48:00 10° WNW 19:50:56 42° W 19:50:56 42° W
BREEZE-M DEB (TANK) 3.9 19:49:20 10° W 19:51:09 33° SW 19:51:09 33° SW
Cosmos 2322 3.9 19:48:12 10° SW 19:53:55 71° NW 19:59:40 10° NNE
SL-4 R/B 4.4 19:53:30 10° W 19:54:13 13° WSW 19:54:13 13° WSW
Meteor 1-21 4.4 19:52:35 10° N 19:57:32 63° NNE 19:57:32 63° NNE
Cosmos 1898 Rocket 3.7 19:53:17 10° NNW 19:57:51 68° NNW 19:57:51 68° NNW
Spot 2 Rocket 3.9 20:01:34 56° N 20:01:34 56° N 20:05:38 10° NNW
Gbstr 26 Del rocket 4.0 19:56:58 10° W 20:00:59 54° WSW 20:00:59 54° WSW
ERS-1 Rocket 4.0 20:04:10 38° N 20:04:10 38° N 20:07:27 10° N
USA 307 4.4 19:59:19 10° WNW 20:01:49 34° W 20:01:49 34° W
ATLAS CENTAUR R/B 3.5 20:01:41 10° W 20:03:11 21° W 20:03:11 21° W
Cosmos 2297 4.2 20:02:02 10° NNW 20:06:49 50° NNE 20:06:49 50° NNE
ARIANE 5 R/B 4.2 20:21:38 33° NNW 20:21:38 33° NNW 20:24:08 10° NNW
SPOT 1/Viking Rocket 4.4 20:29:56 47° WNW 20:29:56 47° WNW 20:33:59 10° NNW
Cosmos 2278 Rocket 3.2 20:25:23 10° NW 20:30:28 39° WSW 20:30:28 39° WSW
Cosmos 2360 Rocket 4.0 20:26:23 10° W 20:31:18 29° NW 20:36:15 10° NNE
Cosmos 2333 Rocket 3.3 20:35:47 10° WSW 20:41:12 43° NW 20:46:42 10° NNE
Resurs 01 Rocket 4.1 20:50:13 18° W 20:50:13 18° W 20:52:48 10° NW
Cosmos 1943 Rocket 3.3 20:44:46 10° NNW 20:48:24 40° NNW 20:48:24 40° NNW
Cosmos 2219 Rocket 3.8 21:13:23 10° W 21:18:18 30° NW 21:23:16 10° NNE
Terra 4.2 21:21:50 20° NNW 21:21:50 20° NNW 21:23:22 10° NNW
USA 234 4.4 21:27:15 35° W 21:27:15 35° W 21:30:50 10° W
USA 281 4.1 21:34:30 44° NW 21:34:30 44° NW 21:38:54 10° NNW
Cosmos 2369 Rocket 4.0 21:30:03 10° NNW 21:32:29 27° NNW 21:32:29 27° NNW
CENTAUR R/B 4.4 22:41:39 26° NE 22:41:39 26° NE 22:45:05 10° NE
SL-16 R/B 4.4 23:11:41 24° NNE 23:11:41 24° NNE 23:14:39 10° N
ATLAS 3B R/B 4.3 23:51:14 28° NE 23:51:14 28° NE 23:54:23 10° NE
